START_TIME,STEP,MOV.,M29,t_acc.,H22,t_acc.,H26,t_acc.,H30,t_acc.
1979-07-23 06:00:31.470 ,1,1,0.,24.0,0.,24.0,0.,24.0,0.,24.0
1979-07-23 06:00:55.470 ,2,1,0.,24.0,0.,24.0,0.,24.0,0.,24.0
1979-07-23 06:01:19.470 ,6,1,0.,24.0,0.,24.0,0.,24.0,0.,24.0
1979-07-23 06:01:43.470 ,5,1,0.,24.0,0.,24.0,0.,24.0,0.,24.0
1979-07-23 06:02:07.470 ,1,1,0.,24.0,0.,24.0,0.,24.0,0.,24.0
1979-07-23 06:02:31.470 ,2,1,0.,24.0,0.,24.0,0.,24.0,0.,24.0
1979-07-23 06:02:55.470 ,6,1,0.,24.0,0.,24.0,0.,24.0,0.,24.0
1979-07-23 06:03:19.470 ,5,1,0.,24.0,0.,24.0,0.,24.0,0.,24.0
1979-07-23 06:03:43.470 ,1,1,0.,24.0,0.,24.0,0.,24.0,0.,24.0
1979-07-23 06:04:07.470 ,2,1,0.,24.0,0.,24.0,0.,24.0,0.,24.0
1979-07-23 06:04:31.470 ,6,1,0.,24.0,0.,24.0,0.,24.0,0.,24.0
1979-07-23 06:04:55.470 ,5,1,0.,24.0,0.,24.0,0.,24.0,0.,24.0
1979-07-23 06:05:19.470 ,1,1,0.,24.0,0.,24.0,0.,24.0,0.,24.0
1979-07-23 06:05:43.470 ,0,0,0.,24.0,0.,24.0,0.,24.0,0.,24.0
1979-07-23 06:06:07.470 ,0,0,0.,24.0,0.,24.0,0.,24.0,0.,24.0
1979-07-23 06:06:31.470 ,5,1,0.,24.0,0.,24.0,0.,24.0,0.,24.0
1979-07-23 06:06:55.470 ,5,0,0.,24.0,0.,24.0,0.,24.0,0.,24.0
1979-07-23 06:07:19.470 ,4,1,0.,24.0,0.,24.0,0.,24.0,0.,24.0
1979-07-23 06:07:43.470 ,4,0,0.,24.0,0.,24.0,0.,24.0,0.,24.0
1979-07-23 06:08:07.470 ,3,1,0.,24.0,0.,24.0,0.,24.0,0.,24.0
1979-07-23 06:08:31.470 ,3,0,0.,24.0,0.,24.0,0.,24.0,0.,24.0
1979-07-23 06:08:55.470 ,2,1,0.,24.0,0.,24.0,0.,24.0,0.,24.0
1979-07-23 06:09:19.470 ,2,0,0.,24.0,0.,24.0,0.,24.0,0.,24.0
1979-07-23 06:09:43.470 ,1,1,0.,24.0,0.,24.0,0.,24.0,0.,24.0
1979-07-23 06:10:07.470 ,1,0,0.,24.0,0.,24.0,0.,24.0,0.,24.0
1979-07-23 06:10:31.470 ,0,1,0.,24.0,0.,24.0,0.,24.0,0.,24.0
1979-07-23 06:10:55.470 ,0,0,0.,24.0,0.,24.0,0.,24.0,0.,24.0
1979-07-23 06:11:19.470 ,0,1,0.,24.0,0.,24.0,0.,24.0,0.,24.0
1979-07-23 06:11:43.470 ,0,0,0.,24.0,0.,24.0,0.,24.0,0.,24.0
1979-07-23 06:12:07.470 ,1,1,0.,24.0,0.,24.0,0.,24.0,0.,24.0
1979-07-23 06:12:31.470 ,1,0,0.,24.0,0.,24.0,0.,24.0,0.,24.0
1979-07-23 06:12:55.470 ,2,1,0.,24.0,0.,24.0,0.,24.0,0.,24.0
1979-07-23 06:13:19.470 ,2,0,0.,24.0,0.,24.0,0.,24.0,0.,24.0
1979-07-23 06:13:43.470 ,3,1,0.,24.0,0.,24.0,0.,24.0,0.,24.0
1979-07-23 06:14:07.470 ,3,0,0.,24.0,0.,24.0,0.,24.0,0.,24.0
1979-07-23 06:14:31.470 ,4,1,0.,24.0,0.,24.0,0.,24.0,0.,24.0
1979-07-23 06:14:55.470 ,4,0,0.,24.0,0.,24.0,0.,24.0,0.,24.0
1979-07-23 06:15:19.470 ,5,1,0.,24.0,0.,24.0,0.,24.0,0.,24.0
1979-07-23 06:15:43.470 ,5,0,0.,24.0,0.,24.0,0.,24.0,0.,24.0
1979-07-23 06:16:07.470 ,6,1,0.,24.0,0.,24.0,0.,24.0,0.,24.0
1979-07-23 06:16:31.470 ,6,0,0.,24.0,0.,24.0,0.,24.0,0.,24.0
1979-07-23 06:16:55.470 ,7,1,0.,24.0,0.,24.0,0.,24.0,0.,24.0
1979-07-23 06:17:19.470 ,7,0,0.,24.0,0.,24.0,0.,24.0,0.,24.0
1979-07-23 06:17:43.470 ,7,1,0.,24.0,0.,24.0,0.,24.0,0.,24.0
1979-07-23 06:18:07.470 ,7,0,0.,24.0,0.,24.0,0.,24.0,0.,24.0
1979-07-23 06:18:31.470 ,6,1,0.,24.0,0.,24.0,0.,24.0,0.,24.0
1979-07-23 06:18:55.470 ,6,0,0.,24.0,0.,24.0,0.,24.0,0.,24.0
1979-07-23 06:19:19.470 ,5,1,0.,24.0,0.,24.0,0.,24.0,0.,24.0
1979-07-23 06:19:43.470 ,5,0,0.,24.0,0.,24.0,0.,24.0,0.,24.0
1979-07-23 06:20:07.470 ,4,1,0.,24.0,0.,24.0,0.,24.0,0.,24.0
1979-07-23 06:20:31.470 ,4,0,0.,24.0,0.,24.0,0.,24.0,0.,24.0
1979-07-23 06:20:55.470 ,3,1,0.,24.0,0.,24.0,0.,24.0,0.,24.0
1979-07-23 06:21:19.470 ,3,0,0.,24.0,0.,24.0,0.,24.0,0.,24.0
1979-07-23 06:21:43.470 ,2,1,0.,24.0,0.,24.0,0.,24.0,0.,24.0
1979-07-23 06:22:07.470 ,2,0,0.,24.0,0.,24.0,0.,24.0,0.,24.0
1979-07-23 06:22:31.470 ,1,1,0.,24.0,0.,24.0,0.,24.0,0.,24.0
1979-07-23 06:22:55.470 ,1,0,0.,24.0,0.,24.0,0.,24.0,0.,24.0
1979-07-23 06:23:19.470 ,0,1,0.,24.0,0.,24.0,0.,24.0,0.,24.0
1979-07-23 06:23:43.470 ,0,0,0.,24.0,0.,24.0,0.,24.0,0.,24.0
1979-07-23 06:24:07.470 ,0,1,0.,24.0,0.,24.0,0.,24.0,0.,24.0
1979-07-23 06:24:31.470 ,0,0,0.,24.0,0.,24.0,0.,24.0,0.,24.0
1979-07-23 06:24:55.470 ,1,1,0.,24.0,0.,24.0,0.,24.0,0.,24.0
1979-07-23 06:25:19.470 ,1,0,0.,24.0,0.,24.0,0.,24.0,0.,24.0
1979-07-23 06:25:43.470 ,2,1,0.,24.0,0.,24.0,0.,24.0,0.,24.0
1979-07-23 06:26:07.470 ,2,0,0.,24.0,0.,24.0,0.,24.0,0.,24.0
1979-07-23 06:26:31.470 ,3,1,1.,24.0,0.,24.0,0.,24.0,0.,24.0
1979-07-23 06:26:55.470 ,3,0,0.,24.0,0.,24.0,0.,24.0,0.,24.0
1979-07-23 06:27:19.470 ,4,1,0.,24.0,0.,24.0,0.,24.0,0.,24.0
1979-07-23 06:27:43.470 ,4,0,0.,24.0,0.,24.0,0.,24.0,0.,24.0
1979-07-23 06:28:07.470 ,5,1,0.,24.0,0.,24.0,0.,24.0,0.,24.0
1979-07-23 06:28:31.470 ,5,0,0.,24.0,0.,24.0,0.,24.0,0.,24.0
1979-07-23 06:28:55.470 ,6,1,0.,24.0,0.,24.0,0.,24.0,0.,24.0
1979-07-23 06:29:19.470 ,6,0,0.,24.0,0.,24.0,0.,24.0,0.,24.0
1979-07-23 06:29:43.470 ,7,1,0.,24.0,0.,24.0,0.,24.0,0.,24.0
1979-07-23 06:30:07.470 ,7,0,0.,24.0,0.,24.0,0.,24.0,0.,24.0
1979-07-23 06:30:31.470 ,7,1,0.,24.0,0.,24.0,0.,24.0,0.,24.0
1979-07-23 06:30:55.470 ,7,0,0.,24.0,0.,24.0,0.,24.0,0.,24.0
1979-07-23 06:31:19.470 ,6,1,0.,24.0,0.,24.0,0.,24.0,0.,24.0
1979-07-23 06:31:43.470 ,6,0,0.,24.0,0.,24.0,0.,24.0,0.,24.0
1979-07-23 06:32:07.470 ,5,1,1.,24.0,0.,24.0,0.,24.0,0.,24.0
1979-07-23 06:32:31.470 ,5,0,0.,24.0,0.,24.0,0.,24.0,0.,24.0
1979-07-23 06:32:55.470 ,4,1,0.,24.0,0.,24.0,0.,24.0,0.,24.0
1979-07-23 06:33:19.470 ,4,0,0.,24.0,0.,24.0,0.,24.0,0.,24.0
1979-07-23 06:33:43.470 ,3,1,0.,24.0,0.,24.0,0.,24.0,0.,24.0
1979-07-23 06:34:07.470 ,3,0,0.,24.0,0.,24.0,0.,24.0,0.,24.0
1979-07-23 06:34:31.470 ,2,1,0.,24.0,0.,24.0,0.,24.0,0.,24.0
1979-07-23 06:34:55.470 ,2,0,0.,24.0,0.,24.0,0.,24.0,0.,24.0
1979-07-23 06:35:19.470 ,1,1,0.,24.0,0.,24.0,0.,24.0,0.,24.0
1979-07-23 06:35:43.470 ,1,0,0.,24.0,0.,24.0,0.,24.0,0.,24.0
1979-07-23 06:36:07.470 ,0,1,0.,24.0,0.,24.0,0.,24.0,0.,24.0
1979-07-23 06:36:31.470 ,0,0,0.,24.0,0.,24.0,0.,24.0,0.,24.0
1979-07-23 06:36:55.470 ,0,1,0.,24.0,0.,24.0,0.,24.0,0.,24.0
1979-07-23 06:37:19.470 ,0,0,0.,24.0,0.,24.0,0.,24.0,0.,24.0
1979-07-23 06:37:43.470 ,1,1,0.,24.0,0.,24.0,0.,24.0,0.,24.0
1979-07-23 06:38:07.470 ,1,0,0.,24.0,0.,24.0,0.,24.0,0.,24.0
1979-07-23 06:38:31.470 ,2,1,0.,24.0,0.,24.0,0.,24.0,0.,24.0
1979-07-23 06:38:55.470 ,2,0,0.,24.0,0.,24.0,0.,24.0,0.,24.0
1979-07-23 06:39:19.470 ,3,1,0.,24.0,0.,24.0,0.,24.0,0.,24.0
1979-07-23 06:39:43.470 ,3,0,0.,24.0,0.,24.0,0.,24.0,0.,24.0
1979-07-23 06:40:07.470 ,4,1,0.,24.0,0.,24.0,0.,24.0,0.,24.0
1979-07-23 06:40:31.470 ,4,0,0.,24.0,0.,24.0,0.,24.0,0.,24.0
1979-07-23 06:40:55.470 ,5,1,0.,24.0,0.,24.0,0.,24.0,0.,24.0
1979-07-23 06:41:19.470 ,5,0,0.,24.0,0.,24.0,0.,24.0,0.,24.0
1979-07-23 06:41:43.470 ,6,1,0.,24.0,0.,24.0,0.,24.0,0.,24.0
1979-07-23 06:42:07.470 ,6,0,0.,24.0,0.,24.0,0.,24.0,0.,24.0
1979-07-23 06:42:31.470 ,7,0,0.,24.0,0.,24.0,0.,24.0,0.,24.0
1979-07-23 06:42:55.470 ,0,0,,0,,0,,0,,0
1979-07-23 06:43:04.470 ,7,0,0.,24.0,0.,24.0,0.,24.0,0.,24.0
1979-07-23 06:43:19.470 ,5,1,0.,24.0,0.,24.0,0.,24.0,0.,24.0
1979-07-23 06:43:43.470 ,1,1,0.,24.0,0.,24.0,0.,24.0,0.,24.0
1979-07-23 06:44:07.470 ,2,1,0.,24.0,0.,24.0,0.,24.0,0.,24.0
1979-07-23 06:44:31.470 ,6,1,0.,24.0,0.,24.0,0.,24.0,0.,24.0
1979-07-23 06:44:55.470 ,5,1,0.,24.0,0.,24.0,0.,24.0,0.,24.0
1979-07-23 06:45:19.470 ,1,1,0.,24.0,0.,24.0,0.,24.0,0.,24.0
1979-07-23 06:45:43.470 ,2,1,0.,24.0,0.,24.0,0.,24.0,0.,24.0
1979-07-23 06:46:07.470 ,6,1,0.,24.0,0.,24.0,0.,24.0,0.,24.0
1979-07-23 06:46:31.470 ,5,1,0.,24.0,0.,24.0,0.,24.0,0.,24.0
1979-07-23 06:46:55.470 ,1,1,0.,24.0,0.,24.0,0.,24.0,0.,24.0
1979-07-23 06:47:19.470 ,2,1,0.,24.0,0.,24.0,0.,24.0,0.,24.0
1979-07-23 06:47:43.470 ,6,1,0.,24.0,0.,24.0,0.,24.0,0.,24.0
1979-07-23 06:48:07.470 ,5,1,0.,24.0,0.,24.0,0.,24.0,0.,24.0
1979-07-23 06:48:31.470 ,1,1,0.,24.0,0.,24.0,0.,24.0,0.,24.0
1979-07-23 06:48:55.470 ,2,1,0.,24.0,0.,24.0,0.,24.0,0.,24.0
1979-07-23 06:49:19.470 ,6,1,0.,24.0,0.,24.0,0.,24.0,0.,24.0
1979-07-23 06:49:43.470 ,5,1,0.,24.0,0.,24.0,0.,24.0,0.,24.0
1979-07-23 06:50:07.470 ,1,1,0.,24.0,0.,24.0,0.,24.0,0.,24.0
1979-07-23 06:50:31.470 ,2,1,0.,24.0,0.,24.0,0.,24.0,0.,24.0
1979-07-23 06:50:55.470 ,6,1,0.,24.0,0.,24.0,0.,24.0,0.,24.0
1979-07-23 06:51:19.470 ,5,1,0.,24.0,0.,24.0,0.,24.0,0.,24.0
1979-07-23 06:51:43.470 ,1,1,0.,24.0,0.,24.0,0.,24.0,0.,24.0
1979-07-23 06:52:07.470 ,2,1,0.,24.0,0.,24.0,0.,24.0,0.,24.0
1979-07-23 06:52:31.470 ,6,1,0.,24.0,0.,24.0,0.,24.0,0.,24.0
1979-07-23 06:52:55.470 ,5,1,0.,24.0,0.,24.0,0.,24.0,0.,24.0
1979-07-23 06:53:19.470 ,1,1,0.,24.0,0.,24.0,0.,24.0,0.,24.0
1979-07-23 06:53:43.470 ,0,0,0.,24.0,0.,24.0,0.,24.0,0.,24.0
1979-07-23 06:54:07.470 ,0,0,0.,24.0,0.,24.0,0.,24.0,0.,24.0
1979-07-23 06:54:31.470 ,5,1,0.,24.0,0.,24.0,0.,24.0,0.,24.0
1979-07-23 06:54:55.470 ,5,0,0.,24.0,0.,24.0,0.,24.0,0.,24.0
1979-07-23 06:55:19.470 ,4,1,0.,24.0,0.,24.0,0.,24.0,0.,24.0
1979-07-23 06:55:43.470 ,4,0,0.,24.0,0.,24.0,0.,24.0,0.,24.0
1979-07-23 06:56:07.470 ,3,1,0.,24.0,0.,24.0,0.,24.0,0.,24.0
1979-07-23 06:56:31.470 ,3,0,0.,24.0,0.,24.0,0.,24.0,0.,24.0
1979-07-23 06:56:55.470 ,2,1,0.,24.0,0.,24.0,0.,24.0,0.,24.0
1979-07-23 06:57:19.470 ,2,0,0.,24.0,0.,24.0,0.,24.0,0.,24.0
1979-07-23 06:57:43.470 ,1,1,0.,24.0,0.,24.0,0.,24.0,0.,24.0
1979-07-23 06:58:07.470 ,1,0,0.,24.0,0.,24.0,0.,24.0,0.,24.0
1979-07-23 06:58:31.470 ,0,1,0.,24.0,0.,24.0,0.,24.0,0.,24.0
1979-07-23 06:58:55.470 ,0,0,0.,24.0,0.,24.0,0.,24.0,0.,24.0
1979-07-23 06:59:19.470 ,0,1,0.,24.0,0.,24.0,0.,24.0,0.,24.0
1979-07-23 06:59:43.470 ,0,0,0.,24.0,0.,24.0,0.,24.0,0.,24.0
1979-07-23 07:00:07.470 ,1,1,0.,24.0,0.,24.0,0.,24.0,0.,24.0
1979-07-23 07:00:31.470 ,1,0,0.,24.0,0.,24.0,0.,24.0,0.,24.0
1979-07-23 07:00:55.470 ,2,1,0.,24.0,0.,24.0,0.,24.0,0.,24.0
1979-07-23 07:01:19.470 ,2,0,0.,24.0,0.,24.0,0.,24.0,0.,24.0
1979-07-23 07:01:43.470 ,3,1,0.,24.0,0.,24.0,0.,24.0,0.,24.0
1979-07-23 07:02:07.470 ,3,0,0.,24.0,0.,24.0,0.,24.0,0.,24.0
1979-07-23 07:02:31.470 ,4,1,0.,24.0,0.,24.0,0.,24.0,0.,24.0
1979-07-23 07:02:55.470 ,4,0,0.,24.0,0.,24.0,0.,24.0,0.,24.0
1979-07-23 07:03:19.470 ,5,1,0.,24.0,0.,24.0,0.,24.0,0.,24.0
1979-07-23 07:03:43.470 ,5,0,0.,24.0,0.,24.0,0.,24.0,0.,24.0
1979-07-23 07:04:07.470 ,6,1,0.,24.0,0.,24.0,0.,24.0,0.,24.0
1979-07-23 07:04:31.470 ,6,0,0.,24.0,0.,24.0,0.,24.0,0.,24.0
1979-07-23 07:04:55.470 ,7,1,0.,24.0,0.,24.0,0.,24.0,0.,24.0
1979-07-23 07:05:19.470 ,7,0,0.,24.0,0.,24.0,0.,24.0,0.,24.0
1979-07-23 07:05:43.470 ,7,1,0.,24.0,0.,24.0,0.,24.0,0.,24.0
1979-07-23 07:06:07.470 ,7,0,0.,24.0,0.,24.0,0.,24.0,0.,24.0
1979-07-23 07:06:31.470 ,6,1,0.,24.0,0.,24.0,0.,24.0,0.,24.0
1979-07-23 07:06:55.470 ,6,0,0.,24.0,0.,24.0,0.,24.0,0.,24.0
1979-07-23 07:07:19.470 ,5,1,0.,24.0,0.,24.0,0.,24.0,0.,24.0
1979-07-23 07:07:43.470 ,5,0,0.,24.0,0.,24.0,0.,24.0,0.,24.0
1979-07-23 07:08:07.470 ,4,1,0.,24.0,0.,24.0,0.,24.0,0.,24.0
1979-07-23 07:08:31.470 ,4,0,1.,24.0,0.,24.0,0.,24.0,0.,24.0
1979-07-23 07:08:55.470 ,3,1,0.,24.0,0.,24.0,0.,24.0,0.,24.0
1979-07-23 07:09:19.470 ,3,0,0.,24.0,0.,24.0,0.,24.0,0.,24.0
1979-07-23 07:09:43.470 ,2,1,0.,24.0,0.,24.0,0.,24.0,0.,24.0
1979-07-23 07:10:07.470 ,2,0,0.,24.0,0.,24.0,0.,24.0,0.,24.0
1979-07-23 07:10:31.470 ,1,1,0.,24.0,0.,24.0,0.,24.0,0.,24.0
1979-07-23 07:10:55.470 ,1,0,0.,24.0,0.,24.0,0.,24.0,0.,24.0
1979-07-23 07:11:19.470 ,0,1,0.,24.0,0.,24.0,0.,24.0,0.,24.0
1979-07-23 07:11:43.470 ,0,0,0.,24.0,0.,24.0,0.,24.0,0.,24.0
1979-07-23 07:12:07.470 ,0,1,0.,24.0,0.,24.0,0.,24.0,0.,24.0
1979-07-23 07:12:31.470 ,0,0,0.,24.0,0.,24.0,0.,24.0,0.,24.0
1979-07-23 07:12:55.470 ,1,1,0.,24.0,0.,24.0,0.,24.0,0.,24.0
1979-07-23 07:13:19.470 ,1,0,0.,24.0,0.,24.0,0.,24.0,0.,24.0
1979-07-23 07:13:43.470 ,2,1,0.,24.0,0.,24.0,0.,24.0,0.,24.0
1979-07-23 07:14:07.470 ,2,0,0.,24.0,0.,24.0,0.,24.0,0.,24.0
1979-07-23 07:14:31.470 ,3,1,0.,24.0,0.,24.0,0.,24.0,0.,24.0
1979-07-23 07:14:55.470 ,3,0,0.,24.0,0.,24.0,0.,24.0,0.,24.0
1979-07-23 07:15:19.470 ,4,1,0.,24.0,0.,24.0,0.,24.0,0.,24.0
1979-07-23 07:15:43.470 ,4,0,0.,24.0,0.,24.0,0.,24.0,0.,24.0
1979-07-23 07:16:07.470 ,5,1,0.,24.0,0.,24.0,0.,24.0,0.,24.0
1979-07-23 07:16:31.470 ,5,0,0.,24.0,0.,24.0,0.,24.0,0.,24.0
1979-07-23 07:16:55.470 ,6,1,0.,24.0,0.,24.0,0.,24.0,0.,24.0
1979-07-23 07:17:19.470 ,6,0,0.,24.0,0.,24.0,0.,24.0,0.,24.0
1979-07-23 07:17:43.470 ,7,1,0.,24.0,0.,24.0,0.,24.0,0.,24.0
1979-07-23 07:18:07.470 ,7,0,0.,24.0,0.,24.0,0.,24.0,0.,24.0
1979-07-23 07:18:31.470 ,7,1,0.,24.0,0.,24.0,0.,24.0,0.,24.0
1979-07-23 07:18:55.470 ,7,0,0.,24.0,0.,24.0,0.,24.0,0.,24.0
1979-07-23 07:19:19.470 ,6,1,0.,24.0,0.,24.0,0.,24.0,0.,24.0
1979-07-23 07:19:43.470 ,6,0,0.,24.0,0.,24.0,0.,24.0,0.,24.0
1979-07-23 07:20:07.470 ,5,1,0.,24.0,0.,24.0,0.,24.0,0.,24.0
1979-07-23 07:20:31.470 ,5,0,0.,24.0,0.,24.0,0.,24.0,0.,24.0
1979-07-23 07:20:55.470 ,4,1,0.,24.0,0.,24.0,0.,24.0,0.,24.0
1979-07-23 07:21:19.470 ,4,0,0.,24.0,0.,24.0,0.,24.0,0.,24.0
1979-07-23 07:21:43.470 ,3,1,0.,24.0,0.,24.0,0.,24.0,0.,24.0
1979-07-23 07:22:07.470 ,3,0,0.,24.0,0.,24.0,0.,24.0,0.,24.0
1979-07-23 07:22:31.470 ,2,1,0.,24.0,0.,24.0,0.,24.0,0.,24.0
1979-07-23 07:22:55.470 ,2,0,0.,24.0,0.,24.0,0.,24.0,0.,24.0
1979-07-23 07:23:19.470 ,1,1,0.,24.0,0.,24.0,0.,24.0,0.,24.0
1979-07-23 07:23:43.470 ,1,0,0.,24.0,0.,24.0,0.,24.0,0.,24.0
1979-07-23 07:24:07.470 ,0,1,0.,24.0,0.,24.0,0.,24.0,0.,24.0
1979-07-23 07:24:31.470 ,0,0,0.,24.0,0.,24.0,0.,24.0,0.,24.0
1979-07-23 07:24:55.470 ,0,1,0.,24.0,0.,24.0,0.,24.0,0.,24.0
1979-07-23 07:25:19.470 ,0,0,0.,24.0,0.,24.0,0.,24.0,0.,24.0
1979-07-23 07:25:43.470 ,1,1,0.,24.0,0.,24.0,0.,24.0,0.,24.0
1979-07-23 07:26:07.470 ,1,0,0.,24.0,0.,24.0,0.,24.0,0.,24.0
1979-07-23 07:26:31.470 ,2,1,0.,24.0,0.,24.0,0.,24.0,0.,24.0
1979-07-23 07:26:55.470 ,2,0,0.,24.0,0.,24.0,0.,24.0,0.,24.0
1979-07-23 07:27:19.470 ,3,1,0.,24.0,0.,24.0,0.,24.0,0.,24.0
1979-07-23 07:27:43.470 ,3,0,0.,24.0,0.,24.0,0.,24.0,0.,24.0
1979-07-23 07:28:07.470 ,4,1,0.,24.0,0.,24.0,0.,24.0,0.,24.0
1979-07-23 07:28:31.470 ,4,0,0.,24.0,0.,24.0,0.,24.0,0.,24.0
1979-07-23 07:28:55.470 ,5,1,0.,24.0,0.,24.0,0.,24.0,0.,24.0
1979-07-23 07:29:19.470 ,5,0,0.,24.0,0.,24.0,0.,24.0,0.,24.0
1979-07-23 07:29:43.470 ,6,1,0.,24.0,0.,24.0,0.,24.0,0.,24.0
1979-07-23 07:30:07.470 ,6,0,0.,24.0,0.,24.0,0.,24.0,0.,24.0
1979-07-23 07:30:31.470 ,7,0,0.,24.0,0.,24.0,0.,24.0,0.,24.0
1979-07-23 07:30:55.470 ,7,0,0.,24.0,0.,24.0,0.,24.0,0.,24.0
1979-07-23 07:31:19.470 ,5,1,0.,24.0,0.,24.0,0.,24.0,0.,24.0
1979-07-23 07:31:43.470 ,1,1,0.,24.0,0.,24.0,0.,24.0,0.,24.0
1979-07-23 07:32:07.470 ,2,1,0.,24.0,0.,24.0,0.,24.0,0.,24.0
1979-07-23 07:32:31.470 ,6,1,0.,24.0,0.,24.0,0.,24.0,0.,24.0
1979-07-23 07:32:55.470 ,5,1,0.,24.0,0.,24.0,0.,24.0,0.,24.0
1979-07-23 07:33:19.470 ,1,1,0.,24.0,0.,24.0,0.,24.0,0.,24.0
1979-07-23 07:33:43.470 ,2,1,0.,24.0,0.,24.0,0.,24.0,0.,24.0
1979-07-23 07:34:07.470 ,6,1,0.,24.0,0.,24.0,0.,24.0,0.,24.0
1979-07-23 07:34:31.470 ,5,1,0.,24.0,0.,24.0,0.,24.0,0.,24.0
1979-07-23 07:34:55.470 ,1,1,0.,24.0,0.,24.0,0.,24.0,0.,24.0
1979-07-23 07:35:19.470 ,2,1,0.,24.0,0.,24.0,0.,24.0,0.,24.0
1979-07-23 07:35:43.470 ,6,1,0.,24.0,0.,24.0,0.,24.0,0.,24.0
1979-07-23 07:36:07.470 ,5,1,0.,24.0,0.,24.0,0.,24.0,0.,24.0
1979-07-23 07:36:31.470 ,1,1,0.,24.0,0.,24.0,0.,24.0,0.,24.0
1979-07-23 07:36:55.470 ,2,1,0.,24.0,0.,24.0,0.,24.0,0.,24.0
1979-07-23 07:37:19.470 ,6,1,0.,24.0,0.,24.0,0.,24.0,0.,24.0
1979-07-23 07:37:43.470 ,5,1,0.,24.0,0.,24.0,0.,24.0,0.,24.0
1979-07-23 07:38:07.470 ,1,1,0.,24.0,0.,24.0,0.,24.0,0.,24.0
1979-07-23 07:38:31.470 ,2,1,0.,24.0,0.,24.0,0.,24.0,0.,24.0
1979-07-23 07:38:55.470 ,6,1,0.,24.0,0.,24.0,0.,24.0,0.,24.0
1979-07-23 07:39:19.470 ,5,1,1.,24.0,0.,24.0,0.,24.0,0.,24.0
1979-07-23 07:39:43.470 ,1,1,0.,24.0,0.,24.0,0.,24.0,0.,24.0
1979-07-23 07:40:07.470 ,2,1,0.,24.0,0.,24.0,0.,24.0,0.,24.0
1979-07-23 07:40:31.470 ,6,1,0.,24.0,0.,24.0,0.,24.0,0.,24.0
1979-07-23 07:40:55.470 ,5,1,0.,24.0,0.,24.0,0.,24.0,0.,24.0
1979-07-23 07:41:19.470 ,1,1,0.,24.0,0.,24.0,0.,24.0,0.,24.0
1979-07-23 07:41:43.470 ,0,0,0.,24.0,0.,24.0,0.,24.0,0.,24.0
1979-07-23 07:42:07.470 ,0,0,0.,24.0,0.,24.0,0.,24.0,0.,24.0
1979-07-23 07:42:31.470 ,5,1,0.,24.0,0.,24.0,0.,24.0,0.,24.0
1979-07-23 07:42:55.470 ,5,0,0.,24.0,0.,24.0,0.,24.0,0.,24.0
1979-07-23 07:43:19.470 ,4,1,0.,24.0,0.,24.0,0.,24.0,0.,24.0
1979-07-23 07:43:43.470 ,4,0,0.,24.0,0.,24.0,0.,24.0,0.,24.0
1979-07-23 07:44:07.470 ,3,1,0.,24.0,0.,24.0,0.,24.0,0.,24.0
1979-07-23 07:44:31.470 ,3,0,0.,24.0,0.,24.0,0.,24.0,0.,24.0
1979-07-23 07:44:55.470 ,2,1,0.,24.0,0.,24.0,0.,24.0,0.,24.0
1979-07-23 07:45:19.470 ,2,0,0.,24.0,0.,24.0,0.,24.0,0.,24.0
1979-07-23 07:45:43.470 ,1,1,0.,24.0,0.,24.0,0.,24.0,0.,24.0
1979-07-23 07:46:07.470 ,1,0,0.,24.0,0.,24.0,0.,24.0,0.,24.0
1979-07-23 07:46:31.470 ,0,1,0.,24.0,0.,24.0,0.,24.0,0.,24.0
1979-07-23 07:46:55.470 ,0,0,1.,24.0,0.,24.0,0.,24.0,0.,24.0
1979-07-23 07:47:19.470 ,0,1,0.,24.0,0.,24.0,0.,24.0,0.,24.0
1979-07-23 07:47:43.470 ,0,0,0.,24.0,0.,24.0,0.,24.0,0.,24.0
1979-07-23 07:48:07.470 ,1,1,0.,24.0,0.,24.0,0.,24.0,0.,24.0
1979-07-23 07:48:31.470 ,1,0,0.,24.0,0.,24.0,0.,24.0,0.,24.0
1979-07-23 07:48:55.470 ,2,1,0.,24.0,0.,24.0,0.,24.0,0.,24.0
1979-07-23 07:49:19.470 ,2,0,0.,24.0,0.,24.0,0.,24.0,0.,24.0
1979-07-23 07:49:43.470 ,3,1,0.,24.0,0.,24.0,0.,24.0,0.,24.0
1979-07-23 07:50:07.470 ,3,0,0.,24.0,0.,24.0,0.,24.0,0.,24.0
1979-07-23 07:50:31.470 ,4,1,0.,24.0,0.,24.0,0.,24.0,0.,24.0
1979-07-23 07:50:55.470 ,4,0,0.,24.0,0.,24.0,0.,24.0,0.,24.0
1979-07-23 07:51:19.470 ,5,1,0.,24.0,0.,24.0,0.,24.0,0.,24.0
1979-07-23 07:51:43.470 ,5,0,1.,24.0,0.,24.0,0.,24.0,0.,24.0
1979-07-23 07:52:07.470 ,6,1,0.,24.0,0.,24.0,0.,24.0,0.,24.0
1979-07-23 07:52:31.470 ,6,0,0.,24.0,0.,24.0,0.,24.0,0.,24.0
1979-07-23 07:52:55.470 ,7,1,0.,24.0,0.,24.0,0.,24.0,0.,24.0
1979-07-23 07:53:19.470 ,7,0,0.,24.0,0.,24.0,0.,24.0,0.,24.0
1979-07-23 07:53:43.470 ,7,1,0.,24.0,0.,24.0,0.,24.0,0.,24.0
1979-07-23 07:54:07.470 ,7,0,0.,24.0,0.,24.0,0.,24.0,0.,24.0
1979-07-23 07:54:31.470 ,6,1,0.,24.0,0.,24.0,0.,24.0,0.,24.0
1979-07-23 07:54:55.470 ,6,0,0.,24.0,0.,24.0,0.,24.0,0.,24.0
1979-07-23 07:55:19.470 ,5,1,0.,24.0,0.,24.0,0.,24.0,0.,24.0
1979-07-23 07:55:43.470 ,5,0,0.,24.0,0.,24.0,0.,24.0,0.,24.0
1979-07-23 07:56:07.470 ,4,1,0.,24.0,0.,24.0,0.,24.0,0.,24.0
1979-07-23 07:56:31.470 ,4,0,0.,24.0,0.,24.0,0.,24.0,0.,24.0
1979-07-23 07:56:55.470 ,3,1,1.,24.0,0.,24.0,0.,24.0,0.,24.0
1979-07-23 07:57:19.470 ,3,0,0.,24.0,0.,24.0,0.,24.0,0.,24.0
1979-07-23 07:57:43.470 ,2,1,0.,24.0,0.,24.0,0.,24.0,0.,24.0
1979-07-23 07:58:07.470 ,2,0,0.,24.0,0.,24.0,0.,24.0,0.,24.0
1979-07-23 07:58:31.470 ,1,1,0.,24.0,0.,24.0,0.,24.0,0.,24.0
1979-07-23 07:58:55.470 ,1,0,0.,24.0,0.,24.0,0.,24.0,0.,24.0
1979-07-23 07:59:19.470 ,0,1,0.,24.0,0.,24.0,0.,24.0,0.,24.0
1979-07-23 07:59:43.470 ,0,0,0.,24.0,0.,24.0,0.,24.0,0.,24.0
1979-07-23 08:00:07.470 ,0,1,0.,24.0,0.,24.0,0.,24.0,0.,24.0
1979-07-23 08:00:31.470 ,0,0,0.,24.0,0.,24.0,0.,24.0,0.,24.0
1979-07-23 08:00:55.470 ,1,1,0.,24.0,0.,24.0,0.,24.0,0.,24.0
1979-07-23 08:01:19.470 ,1,0,0.,24.0,0.,24.0,0.,24.0,0.,24.0
1979-07-23 08:01:43.470 ,2,1,0.,24.0,0.,24.0,0.,24.0,0.,24.0
1979-07-23 08:02:07.470 ,2,0,0.,24.0,0.,24.0,0.,24.0,0.,24.0
1979-07-23 08:02:31.470 ,3,1,0.,24.0,0.,24.0,0.,24.0,0.,24.0
1979-07-23 08:02:55.470 ,3,0,0.,24.0,0.,24.0,0.,24.0,0.,24.0
1979-07-23 08:03:19.470 ,4,1,0.,24.0,0.,24.0,0.,24.0,0.,24.0
1979-07-23 08:03:43.470 ,4,0,0.,24.0,0.,24.0,0.,24.0,0.,24.0
1979-07-23 08:04:07.470 ,5,1,0.,24.0,0.,24.0,0.,24.0,0.,24.0
1979-07-23 08:04:31.470 ,5,0,0.,24.0,0.,24.0,0.,24.0,0.,24.0
1979-07-23 08:04:55.470 ,6,1,0.,24.0,0.,24.0,0.,24.0,0.,24.0
1979-07-23 08:05:19.470 ,6,0,0.,24.0,0.,24.0,0.,24.0,0.,24.0
1979-07-23 08:05:43.470 ,7,1,0.,24.0,0.,24.0,0.,24.0,0.,24.0
1979-07-23 08:06:07.470 ,7,0,0.,24.0,0.,24.0,0.,24.0,0.,24.0
1979-07-23 08:06:31.470 ,7,1,0.,24.0,0.,24.0,0.,24.0,0.,24.0
1979-07-23 08:06:55.470 ,7,0,0.,24.0,0.,24.0,0.,24.0,0.,24.0
1979-07-23 08:07:19.470 ,6,1,0.,24.0,0.,24.0,0.,24.0,0.,24.0
1979-07-23 08:07:43.470 ,6,0,0.,24.0,0.,24.0,0.,24.0,0.,24.0
1979-07-23 08:08:07.470 ,5,1,0.,24.0,0.,24.0,0.,24.0,0.,24.0
1979-07-23 08:08:31.470 ,5,0,0.,24.0,0.,24.0,0.,24.0,0.,24.0
1979-07-23 08:08:55.470 ,4,1,0.,24.0,0.,24.0,0.,24.0,0.,24.0
1979-07-23 08:09:19.470 ,4,0,0.,24.0,0.,24.0,0.,24.0,0.,24.0
1979-07-23 08:09:43.470 ,3,1,0.,24.0,0.,24.0,0.,24.0,0.,24.0
1979-07-23 08:10:07.470 ,3,0,0.,24.0,0.,24.0,0.,24.0,0.,24.0
1979-07-23 08:10:31.470 ,2,1,0.,24.0,0.,24.0,0.,24.0,0.,24.0
1979-07-23 08:10:55.470 ,2,0,0.,24.0,0.,24.0,0.,24.0,0.,24.0
1979-07-23 08:11:19.470 ,1,1,0.,24.0,0.,24.0,0.,24.0,0.,24.0
1979-07-23 08:11:43.470 ,1,0,0.,24.0,0.,24.0,0.,24.0,0.,24.0
1979-07-23 08:12:07.470 ,0,1,0.,24.0,0.,24.0,0.,24.0,0.,24.0
1979-07-23 08:12:31.470 ,0,0,0.,24.0,0.,24.0,0.,24.0,0.,24.0
1979-07-23 08:12:55.470 ,0,1,0.,24.0,0.,24.0,0.,24.0,0.,24.0
1979-07-23 08:13:19.470 ,0,0,0.,24.0,0.,24.0,0.,24.0,0.,24.0
1979-07-23 08:13:43.470 ,1,1,0.,24.0,0.,24.0,0.,24.0,0.,24.0
1979-07-23 08:14:07.470 ,1,0,0.,24.0,0.,24.0,0.,24.0,0.,24.0
1979-07-23 08:14:31.470 ,2,1,0.,24.0,0.,24.0,0.,24.0,0.,24.0
1979-07-23 08:14:55.470 ,2,0,0.,24.0,0.,24.0,0.,24.0,0.,24.0
1979-07-23 08:15:19.470 ,3,1,0.,24.0,0.,24.0,0.,24.0,0.,24.0
1979-07-23 08:15:43.470 ,3,0,0.,24.0,0.,24.0,0.,24.0,0.,24.0
1979-07-23 08:16:07.470 ,4,1,0.,24.0,0.,24.0,0.,24.0,0.,24.0
1979-07-23 08:16:31.470 ,4,0,0.,24.0,0.,24.0,0.,24.0,0.,24.0
1979-07-23 08:16:55.470 ,5,1,0.,24.0,0.,24.0,0.,24.0,0.,24.0
1979-07-23 08:17:19.470 ,5,0,0.,24.0,0.,24.0,0.,24.0,0.,24.0
1979-07-23 08:17:43.470 ,0,0,0.,24.0,0.,24.0,0.,24.0,0.,24.0
1979-07-23 08:18:07.470 ,0,0,0.,24.0,0.,24.0,0.,24.0,0.,24.0
1979-07-23 08:18:31.470 ,7,0,0.,24.0,0.,24.0,0.,24.0,0.,24.0
1979-07-23 08:18:55.470 ,7,0,0.,24.0,0.,24.0,0.,24.0,0.,24.0
1979-07-23 08:19:19.460 ,5,1,0.,24.0,0.,24.0,0.,24.0,0.,24.0
1979-07-23 08:19:43.460 ,1,1,0.,24.0,0.,24.0,0.,24.0,0.,24.0
1979-07-23 08:20:07.460 ,2,1,0.,24.0,0.,24.0,0.,24.0,0.,24.0
1979-07-23 08:20:31.460 ,6,1,0.,24.0,0.,24.0,0.,24.0,0.,24.0
1979-07-23 08:20:55.460 ,5,1,0.,24.0,0.,24.0,0.,24.0,0.,24.0
1979-07-23 08:21:19.460 ,1,1,0.,24.0,0.,24.0,0.,24.0,0.,24.0
1979-07-23 08:21:43.460 ,2,1,0.,24.0,0.,24.0,0.,24.0,0.,24.0
1979-07-23 08:22:07.460 ,6,1,0.,24.0,0.,24.0,0.,24.0,0.,24.0
1979-07-23 08:22:31.460 ,5,1,0.,24.0,0.,24.0,0.,24.0,0.,24.0
1979-07-23 08:22:55.460 ,0,0,0.,24.0,0.,24.0,0.,24.0,0.,24.0
1979-07-23 08:22:55.460 ,0,0,0.,24.0,0.,24.0,0.,24.0,0.,24.0
1979-07-23 08:23:19.460 ,0,0,0.,24.0,0.,24.0,0.,24.0,0.,24.0
1979-07-23 08:23:43.460 ,6,1,0.,24.0,0.,24.0,0.,24.0,0.,24.0
1979-07-23 08:24:07.460 ,5,1,0.,24.0,0.,24.0,0.,24.0,0.,24.0
1979-07-23 08:24:31.460 ,1,1,0.,24.0,0.,24.0,0.,24.0,0.,24.0
1979-07-23 08:24:55.460 ,2,1,0.,24.0,0.,24.0,0.,24.0,0.,24.0
1979-07-23 08:25:19.460 ,6,1,0.,24.0,0.,24.0,0.,24.0,0.,24.0
1979-07-23 08:25:43.460 ,5,1,0.,24.0,0.,24.0,0.,24.0,0.,24.0
1979-07-23 08:26:07.460 ,1,1,0.,24.0,0.,24.0,0.,24.0,0.,24.0
1979-07-23 08:26:31.460 ,2,1,0.,24.0,0.,24.0,0.,24.0,0.,24.0
1979-07-23 08:26:55.460 ,6,1,0.,24.0,0.,24.0,0.,24.0,0.,24.0
1979-07-23 08:27:19.460 ,5,1,0.,24.0,0.,24.0,0.,24.0,0.,24.0
1979-07-23 08:27:43.460 ,1,1,0.,24.0,0.,24.0,0.,24.0,0.,24.0
1979-07-23 08:28:07.460 ,2,1,0.,24.0,0.,24.0,0.,24.0,0.,24.0
1979-07-23 08:28:31.460 ,6,1,0.,24.0,0.,24.0,0.,24.0,0.,24.0
1979-07-23 08:28:55.460 ,5,1,0.,24.0,0.,24.0,0.,24.0,0.,24.0
1979-07-23 08:29:19.460 ,1,1,0.,24.0,0.,24.0,0.,24.0,0.,24.0
1979-07-23 08:29:43.460 ,0,0,0.,24.0,0.,24.0,0.,24.0,0.,24.0
1979-07-23 08:30:07.460 ,0,0,0.,24.0,0.,24.0,0.,24.0,0.,24.0
1979-07-23 08:30:31.460 ,5,1,0.,24.0,0.,24.0,0.,24.0,0.,24.0
1979-07-23 08:30:55.460 ,5,0,0.,24.0,0.,24.0,0.,24.0,0.,24.0
1979-07-23 08:31:19.460 ,4,1,0.,24.0,0.,24.0,0.,24.0,0.,24.0
1979-07-23 08:31:43.460 ,4,0,0.,24.0,0.,24.0,0.,24.0,0.,24.0
1979-07-23 08:32:07.460 ,3,1,0.,24.0,0.,24.0,0.,24.0,0.,24.0
1979-07-23 08:32:31.460 ,3,0,0.,24.0,0.,24.0,0.,24.0,0.,24.0
1979-07-23 08:32:55.460 ,2,1,0.,24.0,0.,24.0,0.,24.0,0.,24.0
1979-07-23 08:33:19.460 ,2,0,0.,24.0,0.,24.0,0.,24.0,0.,24.0
1979-07-23 08:33:43.460 ,1,1,0.,24.0,0.,24.0,0.,24.0,0.,24.0